STARLINK-37017, 68108

Orbit data source: Space-Track

STARLINK-37017, 68108 is a payload satellite owned by SpaceX/Seattle (US) in SSO that was launched on Sun, 08 Mar 2026 UTC via an FALCON 9 launch vehicle from the Air Force Western Test Range (AFWTR). Payload-class satellites include a variety of spacecraft equipped with specific instruments for various scientific and technological missions. These include communications satellites like Starlink; space stations such as the ISS; scientific satellites like the Hubble; Earth observation satellites from companies like Planet Labs, Umbra, and HawkEye 360; GPS; miniature CubeSats for education and research; and military/defense satellites.

Loading next visibility...
Identifier
68108, 2026-044H
Orbit
SSO
Country
Flag of USUS
Related business
Manufacturer
SpaceX/Seattle
Mission
Operational spacecraft
Bus & Motor
STARLINK V2MO, Unknown motor
Mass
575 kg wet, ~530 kg dry
Launch date (UTC)
2026-03-08 (2 months ago)
Launch vehicle
FALCON 9
Launch site
Air Force Western Test Range (AFWTR)
Object type
Payload
Rocket body
Debris
Shape & HBR
Unknown shape, 17.7 m
Radar Cross Section
RCS unknown

Expand to show TLE details & history
Last TLE update: 10 hours ago

TLE from 10 hours ago
0 STARLINK-37017
1 68108U 26044H   26119.46963236  .00019663  00000-0  60969-3 0  9995
2 68108  97.2841  80.4346 0002119  91.6381 268.5105 15.33448920  9366
Epoch: 2026-04-29T11:16Z
TLE epoch observation values (Epoch: 2026-04-29T11:16:16.235Z)
Latitude
Longitude
53.93681°
Altitude
468.682 km
Speed
7.632 km/s
True Right ascension
05h 21m 44s
True Declination
0° 00' 00"
Sunlit
Object was in daylight at epoch
Visualization orbit readout
Latitude
Unknown
Longitude
Unknown
Altitude
Unknown
Speed
Unknown
Apparent Right ascension
Unknown
Apparent Declination
Unknown
Sunlit
N/A
Visualization observer readout
Local Sidereal Time
04:40:55
Azimuth
Unknown
Elevation
Unknown
Doppler factor
Unknown
Orbital elements
Apogee altitude
463.924 km
Perigee altitude
461.025 km
Semi-major axis
6,840.611 km
Eccentricity
0.00021
Inclination
97.2841°
RAAN
80.4346°
Arg. of periapsis
91.6381°
True anomaly
268.48623°
Mean anomaly
268.5105°
Eccentric anomaly
268.49836°
Mean motion
3.8362 °/min
Orbital period
93.84 mins
BSTAR
0.00060969
Loading maneuver chart data...
Computing Atmospheric mass density...
Loading historical data...
Loading historical data...
Loading historical data...
Loading historical data...
Loading historical data...
Loading historical data...
Loading historical data...

Documentation

Showing up to 5 results
|